Powrót do katalogu

COSMOS 1830

AktywnyMilitariaPO
NORAD 17585·PAYLOAD·🇷🇺 Russia

Wystrzelony Mar 13, 1987 z Plesetsk Cosmodrome

Loading…

Następne Przeloty (najbliższe 24 godziny)

TLE

ŚwieżeSource: Space-Track

Epoka: Sep 14, 2026, 15:17 UTC

1 17585U 87026D   26257.63741118  .00000044  00000-0  18521-3 0  9990
2 17585  82.5637 148.6994 0005950  33.7704 338.7731 12.63621527821944

Śledź COSMOS 1830 w czasie rzeczywistym z AllMySat

Download on the App Store